| time (UTC) | temp F | wind direction | speed knots | gust knots | rain 1hr in | rain 24hr in | rain mn in | humidity % | barometer mb |
| 20260506211526 | 72 | 131 | 3.5 | 0.0 | 0.00 | 0.00 | 0.00 | 57 | 1019.4 |
| 20260506210027 | 71 | 98 | 2.6 | 0.0 | 0.00 | 0.00 | 0.00 | 59 | 1019.5 |
| 20260506204525 | 71 | 56 | 2.6 | 0.0 | 0.00 | 0.00 | 0.00 | 58 | 1019.6 |
| 20260506203022 | 69 | 143 | 3.5 | 0.0 | 0.00 | 0.00 | 0.00 | 60 | 1019.9 |
| 20260506201521 | 70 | 95 | 3.5 | 0.0 | 0.00 | 0.00 | 0.00 | 60 | 1020.0 |
| 20260506200020 | 69 | 104 | 2.6 | 0.0 | 0.00 | 0.00 | 0.00 | 62 | 1020.3 |
| 20260506194520 | 69 | 136 | 2.6 | 0.0 | 0.00 | 0.00 | 0.00 | 64 | 1020.4 |
| 20260506193018 | 70 | 149 | 1.7 | 0.0 | 0.00 | 0.00 | 0.00 | 62 | 1020.5 |
| 20260506191516 | 70 | 38 | 2.6 | 0.0 | 0.00 | 0.00 | 0.00 | 64 | 1020.5 |
| 20260506190015 | 68 | 97 | 2.6 | 0.0 | 0.00 | 0.00 | 0.00 | 63 | 1020.6 |
| 20260506184513 | 68 | 44 | 2.6 | 0.0 | 0.00 | 0.00 | 0.00 | 65 | 1020.7 |
| 20260506183013 | 68 | 95 | 1.7 | 0.0 | 0.00 | 0.00 | 0.00 | 64 | 1020.9 |
| 20260506181510 | 65 | 209 | 1.7 | 0.0 | 0.00 | 0.00 | 0.00 | 67 | 1020.9 |
| 20260506180006 | 65 | 151 | 3.5 | 0.0 | 0.00 | 0.00 | 0.00 | 69 | 1020.8 |
| 20260506174504 | 64 | 226 | 2.6 | 0.0 | 0.00 | 0.00 | 0.00 | 67 | 1020.8 |
| 20260506173107 | 64 | 88 | 1.7 | 0.0 | 0.00 | 0.00 | 0.00 | 69 | 1020.8 |
| 20260506171602 | 62 | 37 | 1.7 | 0.0 | 0.00 | 0.00 | 0.00 | 72 | 1021.0 |
| 20260506170106 | 62 | 52 | 1.7 | 0.0 | 0.00 | 0.00 | 0.00 | 72 | 1020.9 |
| 20260506164557 | 61 | 121 | 1.7 | 0.0 | 0.00 | 0.00 | 0.00 | 72 | 1021.1 |
| 20260506163110 | 61 | 99 | 1.7 | 0.0 | 0.00 | 0.00 | 0.00 | 73 | 1020.9 |
| 20260506161546 | 61 | 107 | 1.7 | 0.0 | 0.00 | 0.00 | 0.00 | 73 | 1020.9 |
| 20260506160042 | 59 | 131 | 1.7 | 0.0 | 0.00 | 0.00 | 0.00 | 77 | 1020.9 |
| 20260506154548 | 59 | 292 | 2.6 | 0.0 | 0.00 | 0.00 | 0.00 | 78 | 1020.9 |
| 20260506153036 | 58 | 264 | 1.7 | 0.0 | 0.00 | 0.00 | 0.00 | 80 | 1021.0 |
| 20260506151530 | 57 | 244 | 2.6 | 0.0 | 0.00 | 0.00 | 0.00 | 82 | 1020.8 |
| 20260506150028 | 56 | 244 | 2.6 | 0.0 | 0.00 | 0.00 | 0.00 | 83 | 1020.8 |
| 20260506144526 | 55 | 281 | 1.7 | 0.0 | 0.00 | 0.00 | 0.00 | 85 | 1020.8 |
| 20260506143023 | 54 | 244 | 3.5 | 0.0 | 0.00 | 0.00 | 0.00 | 86 | 1020.7 |
| 20260506141522 | 54 | 252 | 2.6 | 0.0 | 0.00 | 0.00 | 0.00 | 87 | 1020.7 |
| 20260506140019 | 53 | 209 | 2.6 | 0.0 | 0.00 | 0.00 | 0.00 | 89 | 1020.4 |
| 20260506134518 | 53 | 274 | 2.6 | 0.0 | 0.00 | 0.00 | 0.00 | 89 | 1020.3 |
| 20260506133017 | 53 | 246 | 2.6 | 0.0 | 0.00 | 0.00 | 0.00 | 89 | 1020.2 |
| 20260506131517 | 53 | 223 | 1.7 | 0.0 | 0.00 | 0.00 | 0.00 | 89 | 1020.2 |
| 20260506130017 | 53 | 248 | 1.7 | 0.0 | 0.00 | 0.00 | 0.00 | 89 | 1020.1 |
| 20260506124515 | 53 | 242 | 1.7 | 0.0 | 0.00 | 0.00 | 0.00 | 89 | 1020.0 |
| 20260506123015 | 53 | 233 | 1.7 | 0.0 | 0.00 | 0.00 | 0.00 | 88 | 1020.0 |
| 20260506121514 | 53 | 263 | 1.7 | 0.0 | 0.00 | 0.00 | 0.00 | 88 | 1019.9 |
| 20260506120013 | 53 | 269 | 0.9 | 0.0 | 0.00 | 0.00 | 0.00 | 88 | 1019.7 |
| 20260506114512 | 53 | 269 | 0.9 | 0.0 | 0.00 | 0.00 | 0.00 | 88 | 1019.6 |
| 20260506113011 | 53 | 276 | 1.7 | 0.0 | 0.00 | 0.00 | 0.00 | 87 | 1019.6 |
| 20260506111513 | 53 | 203 | 0.9 | 0.0 | 0.00 | 0.00 | 0.00 | 87 | 1019.5 |
| 20260506110009 | 53 | 276 | 1.7 | 0.0 | 0.00 | 0.00 | 0.00 | 86 | 1019.4 |
| 20260506104507 | 53 | 311 | 1.7 | 0.0 | 0.00 | 0.00 | 0.00 | 86 | 1019.3 |
| 20260506103007 | 53 | 256 | 2.6 | 0.0 | 0.00 | 0.00 | 0.00 | 85 | 1019.2 |
| 20260506101507 | 53 | 214 | 3.5 | 0.0 | 0.00 | 0.00 | 0.00 | 85 | 1019.1 |
| 20260506100007 | 53 | 230 | 3.5 | 0.0 | 0.00 | 0.00 | 0.00 | 85 | 1019.0 |
| 20260506094506 | 53 | 239 | 2.6 | 0.0 | 0.00 | 0.00 | 0.00 | 85 | 1019.1 |
| 20260506093005 | 53 | 276 | 1.7 | 0.0 | 0.00 | 0.00 | 0.00 | 84 | 1019.2 |
| 20260506091502 | 53 | 30 | 0.0 | 0.0 | 0.00 | 0.00 | 0.00 | 85 | 1019.3 |
| 20260506090001 | 53 | 266 | 0.9 | 0.0 | 0.00 | 0.00 | 0.00 | 86 | 1019.1 |
| 20260506084602 | 53 | 269 | 1.7 | 0.0 | 0.00 | 0.00 | 0.00 | 85 | 1019.1 |
| 20260506083104 | 52 | 263 | 2.6 | 0.0 | 0.00 | 0.00 | 0.00 | 85 | 1019.2 |
| 20260506081559 | 52 | 245 | 2.6 | 0.0 | 0.00 | 0.00 | 0.00 | 85 | 1019.3 |
| 20260506073052 | 52 | 266 | 3.5 | 0.0 | 0.00 | 0.00 | 0.00 | 86 | 1019.0 |
| 20260506071548 | 52 | 234 | 3.5 | 0.0 | 0.00 | 0.00 | 0.00 | 86 | 1018.9 |
| 20260506061545 | 52 | 243 | 4.3 | 0.0 | 0.00 | 0.00 | 0.05 | 87 | 1018.6 |
| 20260506044546 | 53 | 232 | 3.5 | 0.0 | 0.00 | 0.00 | 0.05 | 84 | 1018.1 |
| 20260506043039 | 53 | 241 | 3.5 | 0.0 | 0.00 | 0.00 | 0.05 | 84 | 1017.9 |
| 20260506041539 | 54 | 263 | 1.7 | 0.0 | 0.00 | 0.00 | 0.05 | 83 | 1017.6 |
| 20260506040054 | 54 | 235 | 0.9 | 0.0 | 0.00 | 0.00 | 0.05 | 83 | 1017.5 |
| 20260506034538 | 55 | 263 | 2.6 | 0.0 | 0.00 | 0.00 | 0.05 | 82 | 1017.2 |
| 20260506033036 | 55 | 258 | 2.6 | 0.0 | 0.00 | 0.00 | 0.05 | 80 | 1017.0 |
| 20260506031552 | 56 | 266 | 1.7 | 0.0 | 0.00 | 0.00 | 0.05 | 80 | 1016.8 |
| 20260506030037 | 56 | 269 | 3.5 | 0.0 | 0.00 | 0.00 | 0.05 | 80 | 1016.5 |
| 20260506024535 | 56 | 223 | 3.5 | 0.0 | 0.00 | 0.00 | 0.05 | 79 | 1016.5 |
| 20260506023036 | 57 | 227 | 4.3 | 0.0 | 0.00 | 0.00 | 0.05 | 78 | 1016.5 |
| 20260506021534 | 57 | 237 | 3.5 | 0.0 | 0.00 | 0.00 | 0.05 | 78 | 1016.3 |
| 20260506020033 | 57 | 237 | 5.2 | 0.0 | 0.00 | 0.00 | 0.05 | 78 | 1016.0 |
| 20260506014534 | 58 | 230 | 3.5 | 0.0 | 0.00 | 0.00 | 0.05 | 78 | 1015.9 |
| 20260506013033 | 58 | 271 | 3.5 | 0.0 | 0.00 | 0.00 | 0.05 | 77 | 1016.0 |
| 20260506011536 | 59 | 246 | 5.2 | 0.0 | 0.00 | 0.00 | 0.05 | 77 | 1015.9 |
| 20260506010031 | 60 | 224 | 4.3 | 0.0 | 0.00 | 0.00 | 0.05 | 75 | 1015.8 |
| 20260506004530 | 60 | 226 | 5.2 | 0.0 | 0.00 | 0.00 | 0.05 | 75 | 1015.7 |
| 20260506003030 | 60 | 235 | 7.8 | 0.0 | 0.00 | 0.00 | 0.05 | 75 | 1015.6 |
| 20260506001530 | 60 | 238 | 6.1 | 0.0 | 0.00 | 0.00 | 0.05 | 74 | 1015.4 |
| 20260506000029 | 60 | 235 | 7.0 | 0.0 | 0.00 | 0.00 | 0.05 | 75 | 1015.4 |
| 20260505234529 | 61 | 191 | 6.1 | 0.0 | 0.00 | 0.00 | 0.05 | 76 | 1015.4 |
| 20260505233030 | 61 | 219 | 5.2 | 0.0 | 0.00 | 0.00 | 0.05 | 76 | 1015.4 |
| 20260505231537 | 61 | 219 | 7.0 | 0.0 | 0.00 | 0.00 | 0.05 | 76 | 1015.4 |
| 20260505230032 | 61 | 222 | 6.1 | 0.0 | 0.00 | 0.00 | 0.05 | 75 | 1015.4 |
| 20260505224525 | 62 | 238 | 3.5 | 0.0 | 0.00 | 0.00 | 0.05 | 74 | 1015.4 |
| 20260505223021 | 62 | 234 | 4.3 | 0.0 | 0.00 | 0.00 | 0.05 | 72 | 1015.4 |
| 20260505221516 | 62 | 210 | 5.2 | 0.0 | 0.00 | 0.00 | 0.05 | 72 | 1015.4 |
| 20260505220011 | 62 | 216 | 3.5 | 0.0 | 0.00 | 0.00 | 0.05 | 71 | 1015.5 |
| 20260505214508 | 63 | 198 | 2.6 | 0.0 | 0.00 | 0.00 | 0.05 | 68 | 1015.6 |
| 20260505213003 | 63 | 222 | 2.6 | 0.0 | 0.00 | 0.00 | 0.05 | 68 | 1015.7 |